This is the latest recevied weather packets stored in our database for station/object W4ZHA. If no packets are shown the sender has not sent any weather packets the latest 10 day(s).
| Time | Temp. | Humidity | Pressure | Rain* | Wind** | Luminosity | Snow |
|---|---|---|---|---|---|---|---|
| 1787604310 | 32.22° C | 45% | 1015.8 hPa | 0 mm | - | 434 W/m² | - |
| 1787604006 | 32.78° C | 45% | 1016.1 hPa | 0 mm | - | 438 W/m² | - |
| 1787603705 | 33.33° C | 47% | 1015.8 hPa | 0 mm | - | 444 W/m² | - |
| 1787603400 | 33.33° C | 47% | 1016.1 hPa | 0 mm | - | 423 W/m² | - |
| 1787603096 | 31.67° C | 45% | 1016.1 hPa | 0 mm | - | 456 W/m² | - |
| 1787602793 | 32.78° C | 45% | 1016.1 hPa | 0 mm | - | 455 W/m² | - |
| 1787602492 | 31.67° C | 45% | 1016.1 hPa | 0 mm | - | 456 W/m² | - |
| 1787602188 | 31.67° C | 45% | 1016.5 hPa | 0 mm | - | 459 W/m² | - |
| 1787601886 | 32.22° C | 45% | 1016.5 hPa | 0 mm | - | 462 W/m² | - |
| 1787601581 | 32.78° C | 45% | 1016.5 hPa | 0 mm | - | 467 W/m² | - |
| 1787601277 | 32.22° C | 45% | 1016.5 hPa | 0 mm | - | 466 W/m² | - |
| 1787600975 | 32.78° C | 45% | 1016.5 hPa | 0 mm | - | 469 W/m² | - |
| 1787600671 | 32.22° C | 45% | 1016.5 hPa | 0 mm | - | 456 W/m² | - |
| 1787600366 | 31.67° C | 45% | 1016.5 hPa | 0 mm | - | 441 W/m² | - |
| 1787600062 | 30.56° C | 45% | 1016.5 hPa | 0 mm | - | 455 W/m² | - |
| 1787599758 | 30.56° C | 45% | 1016.8 hPa | 0 mm | - | 471 W/m² | - |
| 1787599455 | 31.67° C | 45% | 1016.8 hPa | 0 mm | - | 474 W/m² | - |
| 1787599150 | 32.22° C | 45% | 1016.8 hPa | 0 mm | - | 414 W/m² | - |
| 1787598846 | 33.33° C | 47% | 1017.2 hPa | 0 mm | - | 489 W/m² | - |
| 1787598541 | 32.78° C | 45% | 1017.2 hPa | 0 mm | - | 484 W/m² | - |
| 1787598241 | 32.78° C | 45% | 1016.8 hPa | 0 mm | - | 485 W/m² | - |
| 1787597937 | 32.78° C | 45% | 1017.2 hPa | 0 mm | - | 480 W/m² | - |
| 1787597636 | 32.22° C | 45% | 1017.2 hPa | 0 mm | - | 477 W/m² | - |
| 1787597336 | 31.67° C | 45% | 1017.2 hPa | 0 mm | - | 476 W/m² | - |
| 1787597031 | 31.11° C | 45% | 1017.2 hPa | 0 mm | - | 477 W/m² | - |
* Rain latest hour (hover to see other rain measurements)
** Current wind speed in m/s (hover to see current wind gust speed)